TimeCDT,TemperatureF,Dew PointF,Humidity,Sea Level PressureIn,VisibilityMPH,Wind Direction,Wind SpeedMPH,Gust SpeedMPH,PrecipitationIn,Events,Conditions,WindDirDegrees,DateUTC
12:53 AM,69.1,68.0,96,29.96,6.0,Calm,Calm,-,N/A,,Clear,0,2013-07-20 05:53:00
1:53 AM,70.0,68.0,93,29.94,10.0,WNW,3.5,-,N/A,,Clear,300,2013-07-20 06:53:00
2:53 AM,70.0,68.0,93,29.94,10.0,NNW,3.5,-,N/A,,Partly Cloudy,330,2013-07-20 07:53:00
3:53 AM,69.1,66.9,93,29.95,10.0,Calm,Calm,-,N/A,,Partly Cloudy,0,2013-07-20 08:53:00
4:53 AM,70.0,66.9,90,29.94,10.0,West,3.5,-,N/A,,Clear,260,2013-07-20 09:53:00
5:53 AM,73.9,64.9,73,29.94,10.0,West,6.9,-,N/A,,Partly Cloudy,280,2013-07-20 10:53:00
6:53 AM,75.0,64.9,71,29.95,10.0,West,8.1,-,N/A,,Scattered Clouds,270,2013-07-20 11:53:00
7:53 AM,77.0,64.9,66,29.95,10.0,West,9.2,-,N/A,,Clear,260,2013-07-20 12:53:00
8:53 AM,79.0,66.0,64,29.95,10.0,West,8.1,-,N/A,,Scattered Clouds,270,2013-07-20 13:53:00
9:53 AM,81.0,66.0,60,29.96,10.0,West,9.2,-,N/A,,Mostly Cloudy,280,2013-07-20 14:53:00
10:53 AM,82.0,66.9,60,29.97,10.0,West,10.4,-,N/A,,Mostly Cloudy,270,2013-07-20 15:53:00
11:53 AM,84.0,69.1,61,29.95,10.0,West,11.5,18.4,N/A,,Clear,270,2013-07-20 16:53:00
12:53 PM,87.1,70.0,57,29.94,10.0,WNW,9.2,-,N/A,,Clear,290,2013-07-20 17:53:00
1:53 PM,89.1,70.0,53,29.91,10.0,Variable,5.8,-,N/A,,Clear,0,2013-07-20 18:53:00
2:53 PM,88.0,69.1,53,29.88,10.0,SSW,3.5,-,N/A,,Partly Cloudy,210,2013-07-20 19:53:00
3:22 PM,91.4,69.8,49,29.91,10.0,SW,5.8,-,N/A,Thunderstorm,Partly Cloudy,230,2013-07-20 20:22:00
3:53 PM,88.0,69.1,53,29.86,10.0,Calm,Calm,-,N/A,Thunderstorm,Mostly Cloudy,0,2013-07-20 20:53:00
4:07 PM,78.8,69.8,74,29.94,1.8,East,10.4,-,0.17,Rain-Thunderstorm,Heavy Rain,90,2013-07-20 21:07:00
4:19 PM,75.2,68.0,78,29.95,3.0,ENE,15.0,28.8,0.24,Rain-Thunderstorm,Light Thunderstorms and Rain,60,2013-07-20 21:19:00
4:30 PM,73.4,68.0,83,29.94,2.5,North,13.8,20.7,0.34,Rain-Thunderstorm,Heavy Thunderstorms and Rain,10,2013-07-20 21:30:00
4:39 PM,71.6,66.2,83,29.94,1.5,North,11.5,19.6,0.42,Rain-Thunderstorm,Heavy Thunderstorms and Rain,10,2013-07-20 21:39:00
4:49 PM,71.6,66.2,83,29.93,3.0,NNW,6.9,-,0.45,Rain-Thunderstorm,Thunderstorms and Rain,340,2013-07-20 21:49:00
4:53 PM,72.0,66.9,84,29.90,5.0,NW,4.6,-,0.46,Rain-Thunderstorm,Thunderstorms and Rain,310,2013-07-20 21:53:00
5:44 PM,71.6,69.8,94,29.92,10.0,NNE,4.6,-,0.02,Rain,Light Rain,20,2013-07-20 22:44:00
5:53 PM,72.0,70.0,93,29.88,10.0,NNW,4.6,-,0.02,Rain,Light Rain,330,2013-07-20 22:53:00
6:53 PM,73.0,70.0,90,29.92,7.0,SE,13.8,-,0.06,Rain,Light Rain,130,2013-07-20 23:53:00
7:53 PM,72.0,69.1,91,29.91,10.0,South,6.9,-,0.00,,Partly Cloudy,170,2013-07-21 00:53:00
8:53 PM,71.1,68.0,90,29.92,10.0,South,5.8,-,N/A,,Clear,170,2013-07-21 01:53:00
9:53 PM,70.0,69.1,97,29.94,10.0,North,3.5,-,N/A,,Scattered Clouds,350,2013-07-21 02:53:00
10:53 PM,70.0,68.0,93,29.94,10.0,NNW,4.6,-,N/A,,Clear,340,2013-07-21 03:53:00
11:53 PM,69.1,68.0,96,29.94,9.0,Calm,Calm,-,N/A,,Clear,0,2013-07-21 04:53:00